TimeEST,TemperatureF,Dew PointF,Humidity,Sea Level PressureIn,VisibilityMPH,Wind Direction,Wind SpeedMPH,Gust SpeedMPH,PrecipitationIn,Events,Conditions,WindDirDegrees,DateUTC
12:15 AM,33.8,32.0,93,30.10,10.0,NNE,6.9,-,0.00,,Overcast,20,2013-12-06 05:15:00
12:26 AM,33.8,32.0,93,30.13,10.0,North,4.6,-,0.00,,Overcast,360,2013-12-06 05:26:00
12:39 AM,33.8,33.8,100,30.15,6.0,North,3.5,-,0.01,Rain,Light Rain,350,2013-12-06 05:39:00
12:53 AM,34.0,33.1,96,30.14,7.0,North,4.6,-,0.02,Rain,Light Rain,360,2013-12-06 05:53:00
1:35 AM,33.8,32.0,93,30.14,4.0,NNE,4.6,-,0.03,Rain,Rain,30,2013-12-06 06:35:00
1:53 AM,33.1,32.0,96,30.12,7.0,NNE,6.9,-,0.04,,Overcast,30,2013-12-06 06:53:00
2:39 AM,33.8,32.0,93,30.13,4.0,North,4.6,-,0.02,Rain,Light Rain,10,2013-12-06 07:39:00
2:53 AM,33.1,32.0,96,30.17,5.0,North,6.9,-,0.02,,Overcast,350,2013-12-06 07:53:00
3:53 AM,33.1,30.9,92,30.17,4.0,NNW,10.4,-,0.07,Rain,Light Rain,340,2013-12-06 08:53:00
4:38 AM,33.8,30.2,87,30.15,7.0,North,4.6,-,0.03,,Overcast,360,2013-12-06 09:38:00
4:53 AM,32.0,30.9,96,30.15,10.0,North,8.1,-,0.03,,Overcast,360,2013-12-06 09:53:00
5:05 AM,32.0,30.2,93,30.13,10.0,NNE,8.1,-,N/A,,Overcast,20,2013-12-06 10:05:00
5:53 AM,32.0,30.0,92,30.17,10.0,North,4.6,-,N/A,,Overcast,360,2013-12-06 10:53:00
6:53 AM,32.0,30.9,96,30.16,10.0,North,5.8,-,N/A,,Overcast,10,2013-12-06 11:53:00
7:53 AM,32.0,30.9,96,30.17,10.0,North,6.9,16.1,N/A,,Overcast,360,2013-12-06 12:53:00
8:29 AM,33.8,30.2,87,30.18,10.0,North,8.1,-,N/A,,Overcast,350,2013-12-06 13:29:00
8:53 AM,33.1,30.0,89,30.16,10.0,NNE,9.2,-,N/A,,Overcast,20,2013-12-06 13:53:00
9:13 AM,32.0,30.2,93,30.15,10.0,North,9.2,-,N/A,,Overcast,350,2013-12-06 14:13:00
9:33 AM,32.0,30.2,93,30.18,7.0,North,9.2,-,N/A,,Overcast,350,2013-12-06 14:33:00
9:53 AM,30.9,30.0,96,30.20,5.0,North,8.1,-,0.00,,Overcast,350,2013-12-06 14:53:00
10:53 AM,32.0,30.0,92,30.21,6.0,North,9.2,-,0.01,Rain,Light Freezing Rain,10,2013-12-06 15:53:00
11:53 AM,32.0,30.0,92,30.19,3.0,North,9.2,-,0.03,Rain,Light Freezing Rain,360,2013-12-06 16:53:00
12:53 PM,30.9,28.9,92,30.17,3.0,North,8.1,16.1,0.07,Rain,Light Freezing Rain,10,2013-12-06 17:53:00
1:23 PM,30.2,28.4,93,30.14,5.0,North,6.9,19.6,0.05,Rain,Light Freezing Rain,10,2013-12-06 18:23:00
1:36 PM,30.2,28.4,93,30.15,4.0,North,9.2,-,0.07,Rain,Light Freezing Rain,360,2013-12-06 18:36:00
1:53 PM,30.9,28.9,92,30.13,4.0,North,11.5,17.3,0.10,Rain,Light Freezing Rain,10,2013-12-06 18:53:00
2:43 PM,32.0,30.2,93,30.17,2.5,NNW,9.2,18.4,0.05,Rain,Light Freezing Rain,340,2013-12-06 19:43:00
2:53 PM,30.9,30.0,96,30.17,2.0,North,10.4,18.4,0.07,Rain,Light Freezing Rain,360,2013-12-06 19:53:00
3:20 PM,30.2,28.4,93,30.15,4.0,North,9.2,18.4,0.08,Rain,Light Freezing Rain,10,2013-12-06 20:20:00
3:31 PM,30.2,28.4,93,30.18,3.0,North,9.2,18.4,0.09,Rain,Light Freezing Rain,360,2013-12-06 20:31:00
3:36 PM,30.2,28.4,93,30.16,3.0,North,9.2,18.4,0.09,Rain,Light Freezing Rain,10,2013-12-06 20:36:00
3:53 PM,30.9,28.9,92,30.17,3.0,NNE,13.8,20.7,0.12,Rain,Light Freezing Rain,20,2013-12-06 20:53:00
4:04 PM,30.2,28.4,93,30.15,3.0,North,8.1,-,0.02,Rain,Light Freezing Rain,10,2013-12-06 21:04:00
4:08 PM,30.2,28.4,93,30.16,2.5,North,5.8,-,0.03,Rain,Light Freezing Rain,360,2013-12-06 21:08:00
4:15 PM,30.2,28.4,93,30.17,1.8,North,10.4,-,0.05,Rain,Light Freezing Rain,350,2013-12-06 21:15:00
4:24 PM,30.2,28.4,93,30.17,2.5,North,11.5,-,0.07,Rain,Light Freezing Rain,10,2013-12-06 21:24:00
4:49 PM,30.2,28.4,93,30.20,1.8,North,8.1,-,0.11,,Overcast,350,2013-12-06 21:49:00
4:53 PM,30.0,28.0,92,30.22,1.8,North,9.2,-,0.11,,Overcast,350,2013-12-06 21:53:00
5:01 PM,30.2,28.4,93,30.20,2.5,North,10.4,-,0.00,,Overcast,350,2013-12-06 22:01:00
5:15 PM,28.4,28.4,100,30.19,1.2,North,10.4,-,0.02,Snow,Light Snow,360,2013-12-06 22:15:00
5:22 PM,28.4,28.4,100,30.18,1.5,North,8.1,-,0.03,Snow,Light Snow,10,2013-12-06 22:22:00
5:53 PM,28.9,27.0,92,30.26,2.5,NNW,9.2,-,0.04,Snow,Light Snow,340,2013-12-06 22:53:00
5:56 PM,28.4,26.6,93,30.25,3.0,NNW,10.4,-,0.00,Snow,Light Snow,340,2013-12-06 22:56:00
6:10 PM,28.4,26.6,93,30.25,1.8,North,6.9,-,0.01,Snow,Light Snow,360,2013-12-06 23:10:00
6:26 PM,28.4,26.6,93,30.27,1.0,North,6.9,-,0.03,Snow,Light Snow,10,2013-12-06 23:26:00
6:42 PM,28.4,26.6,93,30.25,1.2,North,9.2,-,0.04,Snow,Light Snow,350,2013-12-06 23:42:00
6:53 PM,28.0,27.0,96,30.28,1.2,North,6.9,-,0.05,Snow,Light Snow,360,2013-12-06 23:53:00
7:00 PM,28.4,26.6,93,30.27,1.8,North,5.8,-,0.00,Snow,Light Snow,360,2013-12-07 00:00:00
7:09 PM,28.4,26.6,93,30.26,3.0,North,9.2,-,0.00,Snow,Light Snow,360,2013-12-07 00:09:00
7:16 PM,28.4,26.6,93,30.25,3.0,North,5.8,-,0.00,Snow,Light Snow,360,2013-12-07 00:16:00
7:25 PM,28.4,26.6,93,30.26,2.0,North,6.9,-,0.01,Snow,Light Snow,10,2013-12-07 00:25:00
7:41 PM,28.4,26.6,93,30.26,1.5,North,5.8,-,0.01,Snow,Light Snow,360,2013-12-07 00:41:00
7:53 PM,28.0,27.0,96,30.28,1.8,NNE,5.8,-,0.01,Snow,Light Snow,20,2013-12-07 00:53:00
8:02 PM,28.4,26.6,93,30.27,2.5,North,4.6,-,0.01,Snow,Light Snow,10,2013-12-07 01:02:00
8:12 PM,28.4,26.6,93,30.26,3.0,North,8.1,-,0.01,Snow,Light Snow,10,2013-12-07 01:12:00
8:42 PM,28.4,26.6,93,30.28,6.0,NNW,9.2,-,0.01,,Overcast,340,2013-12-07 01:42:00
8:53 PM,28.0,26.1,92,30.32,6.0,North,9.2,-,0.01,,Overcast,350,2013-12-07 01:53:00
9:53 PM,28.0,26.1,92,30.35,3.0,North,10.4,-,0.00,,Overcast,360,2013-12-07 02:53:00
10:19 PM,28.4,26.6,93,30.33,5.0,North,8.1,17.3,N/A,,Overcast,10,2013-12-07 03:19:00
10:27 PM,28.4,26.6,93,30.33,5.0,North,6.9,-,N/A,,Overcast,360,2013-12-07 03:27:00
10:53 PM,28.0,26.1,92,30.37,6.0,North,6.9,-,N/A,,Overcast,360,2013-12-07 03:53:00
11:53 PM,28.0,26.1,92,30.38,3.0,North,6.9,-,0.00,Snow,Light Snow,350,2013-12-07 04:53:00